Weather History for Branson, MO

Change the Weather History Date:

Tuesday, October 15, 2013

  Actual Average (KHRO) Record (KHRO)
Temperature  
Mean Temperature 58 °F 59 °F  
Max Temperature 64 °F 70 °F 89 °F (1950)
Min Temperature 53 °F 48 °F 30 °F (1937)
Degree Days  
Heating Degree Days 6 7  
Month to date heating degree days 80  
Since 1 July heating degree days 123  
Cooling Degree Days 0 1  
Month to date cooling degree days 21  
Year to date cooling degree days 1400  
Growing Degree Days 8 (Base 50)    
Moisture  
Dew Point 59 °F    
Average Humidity 95    
Maximum Humidity 100    
Minimum Humidity 77    
Precipitation  
Precipitation 0.00 in 0.11 in 1.35 in (1941)
Month to date precipitation 1.64  
Year to date precipitation 34.80  
Snow  
Snow 0.00 in 0.00 in T in (2001)
Month to date snowfall 0.0  
Since 1 July snowfall 0.0  
Since 1 September snowfall 0.0  
Snow Depth -    
Sea Level Pressure  
Sea Level Pressure 29.99 in    
Wind  
Wind Speed 7 mph (South)    
Max Wind Speed 13 mph    
Max Gust Speed -    
Visibility 8 miles    
Events Fog , Rain    
T = Trace of Precipitation, MM = Missing Value Source: NWS Daily Summary

Daily Weather History Graph

Daily Weather History Graph

Search for Another Location

Airport:

Trip Planner

Search our weather history database for the weather conditions in past years. The results will help you decide how hot, cold, wet, or windy it might be!

Date:

Astronomy

Oct. 15, 2013 Rise Set
Actual Time 7:20 AM CDT 6:36 PM CDT
Civil Twilight 6:54 AM CDT 7:02 PM CDT
Nautical Twilight 6:24 AM CDT 7:32 PM CDT
Astronomical Twilight 5:54 AM CDT 8:01 PM CDT
Moon 4:37 PM CDT (10/15) 3:48 AM CDT (10/15)
Length of Visible Light 12h 07m
Length of Day
11h 15m
Waxing Gibbous, 88% of the Moon is Illuminated
Oct 15
Waxing Gibbous
Oct 18
Full
Oct 26
Last Quarter
Nov 3
New
Nov 9
First Quarter

Hourly Weather History & Observations

Time (CDT) Temp. Dew Point Humidity Pressure Visibility Wind Dir Wind Speed Gust Speed Precip Events Conditions
12:15 AM 60.8 °F - N/A% 30.02 in 10.0 mi ESE 8.1 mph - N/A   Overcast
12:35 AM 60.8 °F - N/A% 30.01 in 10.0 mi SE 9.2 mph - N/A   Overcast
12:55 AM 62.6 °F - N/A% 30.00 in 10.0 mi SE 10.4 mph - N/A   Overcast
1:15 AM 62.6 °F - N/A% 30.00 in 10.0 mi SE 10.4 mph - N/A   Overcast
1:35 AM 62.6 °F - N/A% 29.99 in 10.0 mi SE 12.7 mph - N/A   Overcast
1:55 AM 62.6 °F - N/A% 29.98 in 10.0 mi SSE 11.5 mph - N/A   Overcast
2:15 AM 62.6 °F - N/A% 29.98 in 10.0 mi SSE 9.2 mph - N/A   Overcast
2:35 AM 62.6 °F - N/A% 29.97 in 10.0 mi SSE 8.1 mph - N/A   Overcast
2:55 AM 62.6 °F - N/A% 29.97 in 10.0 mi SSE 8.1 mph - N/A   Overcast
3:15 AM 62.6 °F - N/A% 29.96 in 10.0 mi SSE 4.6 mph - N/A   Overcast
3:35 AM 62.6 °F - N/A% 29.95 in 10.0 mi SSE 6.9 mph - N/A   Overcast
3:55 AM 62.6 °F - N/A% 29.95 in 10.0 mi SSE 9.2 mph - N/A   Overcast
4:15 AM 64.4 °F - N/A% 29.94 in 10.0 mi SSE 9.2 mph - N/A   Overcast
4:35 AM 64.4 °F - N/A% 29.94 in 10.0 mi SSE 8.1 mph - N/A   Overcast
4:55 AM 64.4 °F - N/A% 29.94 in 10.0 mi South 8.1 mph - N/A   Overcast
5:15 AM 64.4 °F - N/A% 29.94 in 10.0 mi South 6.9 mph - N/A   Overcast
5:35 AM 64.4 °F - N/A% 29.94 in 10.0 mi SSE 5.8 mph - N/A   Mostly Cloudy
5:55 AM 64.4 °F - N/A% 29.93 in 10.0 mi SSE 5.8 mph - N/A   Scattered Clouds
6:15 AM 64.4 °F - N/A% 29.93 in 10.0 mi SSE 6.9 mph - N/A   Scattered Clouds
6:35 AM 64.4 °F - N/A% 29.93 in 9.0 mi South 8.1 mph - N/A Rain Light Rain
6:48 AM 62.6 °F 62.6 °F 100% 29.93 in 7.0 mi South 6.9 mph - N/A Rain Light Rain
7:18 AM 62.6 °F 62.6 °F 100% 29.96 in 2.0 mi SW 6.9 mph - N/A Rain Light Rain
7:55 AM 62.6 °F 62.6 °F 100% 29.96 in 0.2 mi North 5.8 mph - N/A Fog , Rain Light Rain
8:28 AM 62.6 °F 62.6 °F 100% 29.97 in 1.0 mi Calm Calm - N/A Rain Light Rain
8:52 AM 62.6 °F 62.6 °F 100% 29.97 in 1.0 mi ESE 5.8 mph - N/A Rain Light Rain
9:16 AM 62.6 °F 62.6 °F 100% 29.98 in 5.0 mi SSE 5.8 mph - N/A   Overcast
9:55 AM 64.4 °F 64.4 °F 100% 29.98 in 5.0 mi SSW 3.5 mph - N/A   Overcast
10:52 AM 64.4 °F 64.4 °F 100% 29.98 in 1.0 mi NNW 4.6 mph - N/A   Overcast
11:45 AM 62.6 °F 62.6 °F 100% 29.99 in 5.0 mi NNW 9.2 mph - N/A   Overcast
12:49 PM 59.0 °F 59.0 °F 100% 29.99 in 1.5 mi NW 6.9 mph - N/A   Overcast
1:48 PM 60.8 °F 60.8 °F 100% 29.98 in 10.0 mi NW 5.8 mph - N/A   Overcast
2:46 PM 60.8 °F 60.8 °F 100% 29.98 in 10.0 mi WNW 6.9 mph - N/A   Overcast
3:47 PM 60.8 °F 59.0 °F 94% 29.98 in 10.0 mi NW 10.4 mph - N/A   Overcast
4:45 PM 59.0 °F 57.2 °F 94% 29.98 in 10.0 mi NW 5.8 mph - N/A   Overcast
5:45 PM 59.0 °F 55.4 °F 88% 30.00 in 10.0 mi NW 8.1 mph - N/A   Overcast
6:45 PM 57.2 °F 50.0 °F 77% 30.02 in 10.0 mi NW 6.9 mph - N/A   Overcast
7:45 PM 55.4 °F 48.2 °F 77% 30.04 in 10.0 mi NNW 9.2 mph - N/A   Overcast
8:48 PM 53.6 °F 48.2 °F 82% 30.05 in 10.0 mi WNW 4.6 mph - N/A   Overcast
9:15 PM 53.6 °F - N/A% 30.06 in 10.0 mi WNW 3.5 mph - N/A   Overcast
9:35 PM 53.6 °F - N/A% 30.06 in 10.0 mi NW 4.6 mph - N/A   Overcast
9:55 PM 53.6 °F - N/A% 30.06 in 10.0 mi NW 4.6 mph - N/A   Scattered Clouds
10:15 PM 53.6 °F - N/A% 30.07 in 10.0 mi WNW 3.5 mph - N/A   Mostly Cloudy
10:35 PM 53.6 °F - N/A% 30.06 in 10.0 mi Calm Calm - N/A   Overcast
10:55 PM 53.6 °F - N/A% 30.06 in 10.0 mi Calm Calm - N/A   Overcast
11:15 PM 53.6 °F - N/A% 30.06 in 10.0 mi Calm Calm - N/A   Mostly Cloudy
11:35 PM 53.6 °F - N/A% 30.06 in 10.0 mi Calm Calm - N/A   Mostly Cloudy
11:55 PM 53.6 °F - N/A% 30.06 in 10.0 mi Calm Calm - N/A   Mostly Cloudy